Weather History for Thermopolis, WY

Change the Weather History Date:

Sunday, September 8, 2013

  Actual Average (KWRL) Record (KWRL)
Temperature  
Mean Temperature 58 °F 62 °F  
Max Temperature 64 °F 79 °F 97 °F (1979)
Min Temperature 51 °F 46 °F 30 °F (1962)
Degree Days  
Heating Degree Days 8 4  
Month to date heating degree days 26  
Since 1 July heating degree days 62  
Cooling Degree Days 0 2  
Month to date cooling degree days 18  
Year to date cooling degree days 524  
Growing Degree Days 8 (Base 50)    
Moisture  
Dew Point 49 °F    
Average Humidity 75    
Maximum Humidity 100    
Minimum Humidity 45    
Precipitation  
Precipitation 0.00 in 0.02 in 0.50 in (1973)
Month to date precipitation 0.17  
Year to date precipitation 5.62  
Sea Level Pressure  
Sea Level Pressure 30.26 in    
Wind  
Wind Speed 11 mph (South)    
Max Wind Speed 18 mph    
Max Gust Speed 18 mph    
Visibility 10 miles    
Events Fog , Rain    
T = Trace of Precipitation, MM = Missing Value Source: NWS Daily Summary

Daily Weather History Graph

Daily Weather History Graph

Search for Another Location

Airport:

Trip Planner

Search our weather history database for the weather conditions in past years. The results will help you decide how hot, cold, wet, or windy it might be!

Date:

Astronomy

Sep. 08, 2013 Rise Set
Actual Time 6:44 AM MDT 7:35 PM MDT
Civil Twilight 6:15 AM MDT 8:04 PM MDT
Nautical Twilight 5:41 AM MDT 8:38 PM MDT
Astronomical Twilight 5:05 AM MDT 9:14 PM MDT
Moon 10:13 AM MDT (9/8) 9:04 PM MDT (9/8)
Length of Visible Light 13h 48m
Length of Day
12h 50m
Waxing Crescent, 11% of the Moon is Illuminated
Sep 8
Waxing Crescent
Sep 12
First Quarter
Sep 19
Full
Sep 26
Last Quarter
Oct 4
New

Hourly Weather History & Observations

Time (MDT) Temp. Dew Point Humidity Pressure Visibility Wind Dir Wind Speed Gust Speed Precip Events Conditions
12:15 AM 57.2 °F 53.6 °F 88% 30.34 in 10.0 mi SE 11.5 mph - N/A   Mostly Cloudy
12:35 AM 59.0 °F 50.0 °F 72% 30.33 in 10.0 mi SSE 16.1 mph - N/A   Scattered Clouds
12:55 AM 59.0 °F 50.0 °F 72% 30.32 in 10.0 mi South 18.4 mph - N/A   Clear
1:15 AM 60.8 °F 44.6 °F 55% 30.32 in 10.0 mi South 16.1 mph - N/A   Clear
1:35 AM 60.8 °F 44.6 °F 55% 30.32 in 10.0 mi SW 11.5 mph - N/A   Clear
1:55 AM 62.6 °F 44.6 °F 52% 30.31 in 10.0 mi WSW 16.1 mph - N/A   Clear
2:15 AM 62.6 °F 42.8 °F 48% 30.30 in 10.0 mi WSW 15.0 mph - N/A   Clear
2:35 AM 62.6 °F 41.0 °F 45% 30.30 in 10.0 mi SW 5.8 mph - N/A   Clear
2:55 AM 59.0 °F 46.4 °F 63% 30.30 in 10.0 mi SE 8.1 mph - N/A   Clear
3:15 AM 57.2 °F 50.0 °F 77% 30.30 in 10.0 mi South 6.9 mph - N/A   Clear
3:35 AM 59.0 °F 46.4 °F 63% 30.29 in 10.0 mi South 10.4 mph - N/A   Clear
3:55 AM 55.4 °F 50.0 °F 82% 30.30 in 10.0 mi SE 8.1 mph - N/A   Clear
4:15 AM 53.6 °F 53.6 °F 100% 30.29 in 0.2 mi SSE 5.8 mph - N/A Fog Fog
4:35 AM 57.2 °F 50.0 °F 77% 30.30 in 10.0 mi South 6.9 mph - N/A   Clear
4:55 AM 59.0 °F 48.2 °F 67% 30.29 in 10.0 mi SW 5.8 mph - N/A   Clear
5:15 AM 55.4 °F 50.0 °F 82% 30.29 in 10.0 mi SW 4.6 mph - N/A   Scattered Clouds
5:35 AM 57.2 °F 50.0 °F 77% 30.29 in 10.0 mi SSW 6.9 mph - N/A   Clear
5:55 AM 55.4 °F 50.0 °F 82% 30.29 in 10.0 mi SW 6.9 mph - N/A   Clear
6:15 AM 53.6 °F 50.0 °F 88% 30.29 in 10.0 mi West 11.5 mph - N/A   Clear
6:35 AM 53.6 °F 50.0 °F 88% 30.29 in 10.0 mi West 10.4 mph - N/A   Clear
6:55 AM 53.6 °F 50.0 °F 88% 30.29 in 10.0 mi WNW 5.8 mph - N/A   Clear
7:15 AM 55.4 °F 50.0 °F 82% 30.29 in 10.0 mi WSW 8.1 mph - N/A   Clear
7:35 AM 57.2 °F 50.0 °F 77% 30.30 in 10.0 mi SSW 10.4 mph - N/A   Clear
7:55 AM 59.0 °F 50.0 °F 72% 30.29 in 10.0 mi SSW 11.5 mph - N/A   Clear
8:15 AM 59.0 °F 48.2 °F 67% 30.29 in 10.0 mi SW 8.1 mph - N/A   Clear
8:35 AM 60.8 °F 46.4 °F 59% 30.29 in 10.0 mi SSW 10.4 mph - N/A   Clear
8:55 AM 60.8 °F 46.4 °F 59% 30.29 in 10.0 mi SSE 5.8 mph - N/A   Clear
9:15 AM 62.6 °F 46.4 °F 55% 30.29 in 10.0 mi South 9.2 mph - N/A   Clear
9:35 AM 59.0 °F 51.8 °F 77% 30.29 in 10.0 mi Calm Calm - N/A   Scattered Clouds
9:55 AM 62.6 °F 50.0 °F 63% 30.29 in 10.0 mi SE 5.8 mph - N/A   Clear
10:15 AM 62.6 °F 50.0 °F 63% 30.28 in 10.0 mi SE 8.1 mph - N/A   Clear
10:35 AM 62.6 °F 51.8 °F 68% 30.28 in 10.0 mi SE 9.2 mph - N/A   Clear
10:55 AM 64.4 °F 50.0 °F 59% 30.28 in 10.0 mi SE 9.2 mph - N/A   Clear
11:35 AM 62.6 °F 51.8 °F 68% 30.27 in 10.0 mi ESE 8.1 mph - N/A   Mostly Cloudy
11:55 AM 64.4 °F 53.6 °F 68% 30.27 in 10.0 mi SSE 9.2 mph 16.1 mph N/A   Scattered Clouds
12:15 PM 64.4 °F 50.0 °F 59% 30.26 in 10.0 mi ESE 8.1 mph - N/A   Scattered Clouds
12:35 PM 64.4 °F 50.0 °F 59% 30.26 in 10.0 mi SE 8.1 mph - N/A   Mostly Cloudy
12:55 PM 64.4 °F 50.0 °F 59% 30.26 in 10.0 mi SE 10.4 mph - N/A   Overcast
1:15 PM 62.6 °F 50.0 °F 63% 30.26 in 10.0 mi SE 9.2 mph - N/A   Overcast
1:35 PM 62.6 °F 50.0 °F 63% 30.26 in 10.0 mi SE 9.2 mph - N/A   Overcast
1:55 PM 62.6 °F 51.8 °F 68% 30.26 in 10.0 mi SSE 10.4 mph - N/A   Overcast
2:15 PM 60.8 °F 51.8 °F 72% 30.26 in 10.0 mi SSE 10.4 mph 18.4 mph N/A Rain Light Rain
2:35 PM 60.8 °F 53.6 °F 77% 30.26 in 10.0 mi SSE 13.8 mph - N/A Rain Rain
2:55 PM 59.0 °F 55.4 °F 88% 30.26 in 10.0 mi SSE 16.1 mph - N/A Rain Rain
3:15 PM 59.0 °F 55.4 °F 88% 30.25 in 10.0 mi SE 11.5 mph - N/A Rain Light Rain
3:35 PM 59.0 °F 53.6 °F 82% 30.24 in 10.0 mi SSE 5.8 mph - N/A   Overcast
3:55 PM 59.0 °F 53.6 °F 82% 30.23 in 10.0 mi SSE 6.9 mph - N/A   Mostly Cloudy
4:15 PM 59.0 °F 53.6 °F 82% 30.23 in 10.0 mi West 12.7 mph 16.1 mph N/A   Mostly Cloudy
4:35 PM 55.4 °F 50.0 °F 82% 30.23 in 10.0 mi WNW 16.1 mph - N/A   Overcast
4:55 PM 53.6 °F 50.0 °F 88% 30.23 in 10.0 mi WNW 16.1 mph - N/A Rain Light Rain
5:15 PM 53.6 °F 50.0 °F 88% 30.23 in 10.0 mi WNW 15.0 mph - N/A   Drizzle
5:35 PM 53.6 °F 50.0 °F 88% 30.23 in 10.0 mi NW 13.8 mph - N/A Rain Light Rain
5:55 PM 53.6 °F 50.0 °F 88% 30.22 in 10.0 mi NNW 11.5 mph - N/A Rain Light Rain
6:15 PM 53.6 °F 51.8 °F 94% 30.19 in 10.0 mi NE 6.9 mph - N/A   Light Drizzle
6:35 PM 55.4 °F 50.0 °F 82% 30.19 in 10.0 mi NNE 3.5 mph - N/A   Mostly Cloudy
6:55 PM 57.2 °F 50.0 °F 77% 30.19 in 10.0 mi SSW 8.1 mph - N/A   Scattered Clouds
7:15 PM 55.4 °F 46.4 °F 72% 30.18 in 10.0 mi SSE 6.9 mph - N/A   Clear
7:35 PM 53.6 °F 50.0 °F 88% 30.18 in 10.0 mi SE 12.7 mph - N/A   Clear
7:55 PM 53.6 °F 46.4 °F 77% 30.17 in 10.0 mi SE 16.1 mph - N/A   Clear
8:15 PM 53.6 °F 46.4 °F 77% 30.18 in 10.0 mi SE 15.0 mph - N/A   Clear
8:35 PM 53.6 °F 48.2 °F 82% 30.17 in 10.0 mi SSE 12.7 mph - N/A   Clear
8:55 PM 53.6 °F 50.0 °F 88% 30.18 in 10.0 mi SE 16.1 mph - N/A   Clear
9:15 PM 53.6 °F 51.8 °F 94% 30.19 in 10.0 mi SSE 10.4 mph - N/A   Mostly Cloudy
9:35 PM 53.6 °F 51.8 °F 94% 30.19 in 7.0 mi SSE 11.5 mph - N/A   Scattered Clouds
9:55 PM 51.8 °F 51.8 °F 100% 30.19 in 10.0 mi South 16.1 mph - N/A   Clear
10:15 PM 53.6 °F 50.0 °F 88% 30.18 in 10.0 mi SSE 15.0 mph - N/A   Clear
10:35 PM 53.6 °F 48.2 °F 82% 30.18 in 10.0 mi South 12.7 mph - N/A   Clear
10:55 PM 53.6 °F 46.4 °F 77% 30.19 in 10.0 mi South 13.8 mph - N/A   Clear
11:15 PM 55.4 °F 44.6 °F 67% 30.20 in 10.0 mi SW 9.2 mph - N/A   Clear
11:35 PM 55.4 °F 44.6 °F 67% 30.19 in 10.0 mi WSW 11.5 mph - N/A   Clear
11:55 PM 55.4 °F 44.6 °F 67% 30.20 in 10.0 mi SW 10.4 mph - N/A   Scattered Clouds